El Hierro > ESTACION METEOROLÓGICA Malpaso - El Pinar

DATOS ACTUALES Online

Ultima actulizacion 38 minutos

18 ºC

Temperatura

100

Humedad (%)

Presión (mb)

0

Precipitación (mm)

51.1 NO

Viento (Km/h)

DATOS DIARIOS

Temperatura últimas 24 horas (ºC)

Humedad últimas 24 horas (%)

Presión atmosférica últimas 24 horas (mb)

Precipitaciones últimas 23 horas (mm)

Viento últimas 24 horas (Km/h)

Hora Temperatura (°C) ºC Precipitación (mm) mm Presión (mb) mb Humedad (%) % Viento (Km/h) km/h
28 - 09:00 24.7 0 0 100 35.2 NO
28 - 10:00 24.5 0 0 100 36.1 NO
28 - 11:00 21.9 0 0 100 36.7 NO
28 - 12:00 22.2 0 0 100 41.8 NO
28 - 13:00 21.5 0 0 100 43.9 NO
28 - 14:00 21.1 0 0 100 49.4 NO
28 - 15:00 22 0 0 100 46.7 NO
28 - 16:00 21.2 0 0 100 45.8 NO
28 - 17:00 22.2 0 0 100 55.5 NO
28 - 18:00 21 0 0 100 51.8 NO
28 - 19:00 20.7 0 0 100 46.7 NO
28 - 20:00 21.1 0 0 100 52.2 NO
28 - 21:00 21.1 0 0 100 51.7 NO
28 - 22:00 20.3 0 0 100 51.7 NO
28 - 23:00 20.4 0 0 100 39.6 NO
29 - 00:00 18.2 0 0 100 36.4 NO
29 - 01:00 18 0 0 100 42 NO
29 - 02:00 18.7 0 0 100 50.9 NO
29 - 03:00 18.1 0 0 100 33.2 NO
29 - 04:00 17 0 0 100 43.4 NO
29 - 05:00 18 0 0 100 55 NO
29 - 06:00 17.3 0 0 100 49.2 NO
29 - 07:00 17.5 0 0 100 46.8 NO
29 - 08:00 19 0 0 100 50.5 NO
29 - 09:00 18 0 0 100 51.1 NO
Apalmet utiliza cookies propias y de terceros para mejorar la usabilidad y la experiencia web. Política de cookies.